sat.trackr.live / text

‹ back to catalog

ONEWEB-0124

NORAD 47270 · 2020-100N

PAYLOAD ACTIVE UNKNOWN

§ Identity

Operator
Country
UK
Launch date
2020-12-18
Launch site
VOSTO
Launch vehicle
Mass (kg)
RCS (m²)

Purposes: comms

External: N2YO · Heavens-Above · Gunter

§ Orbital elements

Epoch: 2026-09-20T04:30:57.811968Z

Period
109.72 min
Inclination
87.8976°
Eccentricity
0.0001949
Mean motion
13.12442222 rev/d
Perigee alt
1,212.2 km
Apogee alt
1,215.2 km
Semi-major
7,591.9 km
B*
1.2841e-3
RAAN
331.8047°
Arg perigee
91.6598°
Mean anomaly
268.4754°
Rev number
27,703

§ Raw data

ONEWEB-01241 47270U 20100N   26263.18816912  .00000475  00000+0  12841-2 0  99912 47270  87.8976 331.8047 0001949  91.6598 268.4754 13.12442222277032

JSON: /api/v1/satellites/47270 · /tle

For live sub-satellite position, see the globe view (requires WebGL).

§ Visibility from observer

Set your observer location to see the next 7 days of passes ≥ 10°. The values pass through the URL so the page stays shareable.

No JS? Fill the form by hand. The geolocation button needs JavaScript.